sat.trackr.live / text

‹ back to catalog

STARLINK-5167

NORAD 54058 · 2022-136H

PAYLOAD ACTIVE UNKNOWN

§ Identity

Operator
Country
US
Launch date
2022-10-20
Launch site
AFETR
Launch vehicle
Mass (kg)
RCS (m²)

Purposes: comms

External: N2YO · Heavens-Above · Gunter

§ Orbital elements

Epoch: 2026-09-20T11:44:57.726528Z

Period
93.79 min
Inclination
53.1604°
Eccentricity
0.0001329
Mean motion
15.35397405 rev/d
Perigee alt
458.8 km
Apogee alt
460.6 km
Semi-major
6,837.9 km
B*
1.2964e-5
RAAN
177.6378°
Arg perigee
91.0046°
Mean anomaly
269.1109°
Rev number
21,641

§ Raw data

STARLINK-51671 54058U 22136H   26263.48955702  .00000072  00000+0  12964-4 0  99992 54058  53.1604 177.6378 0001329  91.0046 269.1109 15.35397405216411

JSON: /api/v1/satellites/54058 · /tle

For live sub-satellite position, see the globe view (requires WebGL).

§ Visibility from observer

Set your observer location to see the next 7 days of passes ≥ 10°. The values pass through the URL so the page stays shareable.

No JS? Fill the form by hand. The geolocation button needs JavaScript.